Radiation Dose at Monitoring Post of Fukushima Daini Nuclear Power Station
Date,Time,MP-1(microSv/h),MP-2(microSv/h),MP-3(microSv/h),MP-4(microSv/h),MP-5(microSv/h),MP-6(microSv/h),MP-7(microSv/h),Wind Direction,Wind Velocity(m/s),Rain
2014/02/07,00:00,0.8,0.5,0.8,0.7,0.7,0.3,0.3,north,4.3,No
2014/02/07,00:10,0.8,0.5,0.8,0.7,0.7,0.3,0.3,north,4.3,No
2014/02/07,00:20,0.8,0.5,0.8,0.7,0.7,0.3,0.3,north,3.3,No
2014/02/07,00:30,0.8,0.5,0.8,0.7,0.7,0.3,0.3,north,1.6,No
2014/02/07,00:40,0.8,0.5,0.8,0.7,0.7,0.3,0.3,north,3.4,No
2014/02/07,00:50,0.8,0.5,0.8,0.7,0.7,0.3,0.3,north-northwest,4.2,No
2014/02/07,01:00,0.8,0.5,0.8,0.7,0.7,0.3,0.3,north-northwest,4.4,No
2014/02/07,01:10,0.8,0.5,0.8,0.7,0.7,0.3,0.3,north-northwest,4.2,No
2014/02/07,01:20,0.8,0.5,0.8,0.7,0.7,0.3,0.3,north-northwest,3.4,No
2014/02/07,01:30,0.8,0.5,0.8,0.7,0.7,0.3,0.3,north-northwest,2.5,No
2014/02/07,01:40,0.8,0.5,0.8,0.7,0.7,0.3,0.3,north-northwest,2.1,No
2014/02/07,01:50,0.8,0.5,0.8,0.7,0.7,0.3,0.3,west-northwest,3.4,No
2014/02/07,02:00,0.8,0.5,0.8,0.7,0.7,0.3,0.3,northwest,2.0,No
2014/02/07,02:10,0.8,0.5,0.8,0.7,0.7,0.3,0.3,north-northwest,4.7,No
2014/02/07,02:20,0.8,0.5,0.8,0.7,0.7,0.3,0.3,north-northwest,3.0,No
2014/02/07,02:30,0.8,0.5,0.8,0.7,0.7,0.3,0.3,north-northwest,3.4,No
2014/02/07,02:40,0.8,0.5,0.8,0.7,0.7,0.3,0.3,northwest,3.2,No
2014/02/07,02:50,0.8,0.5,0.8,0.7,0.7,0.3,0.3,north-northwest,2.2,No
2014/02/07,03:00,0.8,0.5,0.8,0.7,0.7,0.3,0.3,northwest,3.9,No
2014/02/07,03:10,0.8,0.5,0.8,0.7,0.7,0.3,0.3,northwest,3.3,No
2014/02/07,03:20,0.8,0.5,0.8,0.7,0.7,0.3,0.3,west-northwest,4.2,No
2014/02/07,03:30,0.8,0.5,0.8,0.7,0.7,0.3,0.3,northwest,1.9,No
2014/02/07,03:40,0.8,0.5,0.8,0.7,0.7,0.3,0.3,northwest,1.2,No
2014/02/07,03:50,0.8,0.5,0.8,0.7,0.7,0.3,0.3,northwest,1.3,No
2014/02/07,04:00,0.8,0.5,0.8,0.7,0.7,0.3,0.3,north-northwest,2.0,No
2014/02/07,04:10,0.8,0.5,0.8,0.7,0.7,0.3,0.3,north,4.4,No
2014/02/07,04:20,0.8,0.5,0.8,0.7,0.7,0.3,0.3,north,2.6,No
2014/02/07,04:30,0.8,0.5,0.8,0.7,0.7,0.3,0.3,north-northwest,3.3,No
2014/02/07,04:40,0.8,0.5,0.8,0.7,0.7,0.3,0.3,north-northwest,4.6,No
2014/02/07,04:50,0.8,0.5,0.8,0.7,0.7,0.3,0.3,north-northwest,2.7,No
2014/02/07,05:00,0.8,0.5,0.8,0.7,0.7,0.3,0.3,north-northwest,2.0,No
2014/02/07,05:10,0.8,0.5,0.8,0.7,0.7,0.3,0.3,north-northwest,2.5,No
2014/02/07,05:20,0.8,0.5,0.8,0.7,0.7,0.3,0.3,northwest,1.8,No
2014/02/07,05:30,0.8,0.5,0.8,0.7,0.7,0.3,0.3,northwest,1.4,No
2014/02/07,05:40,0.8,0.5,0.8,0.7,0.7,0.3,0.3,north-northwest,1.8,No
2014/02/07,05:50,0.8,0.5,0.8,0.7,0.7,0.3,0.3,north-northwest,1.4,No
2014/02/07,06:00,0.8,0.5,0.8,0.7,0.7,0.3,0.3,north-northwest,2.2,No
2014/02/07,06:10,0.8,0.5,0.8,0.7,0.7,0.3,0.3,northwest,2.2,No
2014/02/07,06:20,0.8,0.5,0.8,0.7,0.7,0.3,0.3,northwest,1.7,No
2014/02/07,06:30,0.8,0.5,0.8,0.7,0.7,0.3,0.3,west-northwest,1.8,No
2014/02/07,06:40,0.8,0.5,0.8,0.7,0.7,0.3,0.3,west-northwest,3.1,No
2014/02/07,06:50,0.8,0.5,0.8,0.7,0.7,0.3,0.3,west,3.8,No
2014/02/07,07:00,0.8,0.5,0.8,0.7,0.7,0.3,0.3,west-northwest,3.4,No
2014/02/07,07:10,0.8,0.5,0.8,0.7,0.7,0.3,0.3,northwest,2.2,No
2014/02/07,07:20,0.8,0.5,0.8,0.7,0.7,0.3,0.3,north-northwest,2.4,No
2014/02/07,07:30,0.8,0.5,0.8,0.7,0.7,0.3,0.3,west-northwest,2.1,No
2014/02/07,07:40,0.8,0.5,0.8,0.7,0.7,0.3,0.3,northwest,2.1,No
2014/02/07,07:50,0.8,0.5,0.8,0.7,0.7,0.3,0.3,northwest,2.5,No
2014/02/07,08:00,0.8,0.5,0.8,0.7,0.7,0.3,0.3,north-northwest,2.1,No
2014/02/07,08:10,0.8,0.5,0.8,0.7,0.7,0.3,0.3,north,1.4,No
2014/02/07,08:20,0.8,0.5,0.8,0.7,0.7,0.3,0.3,north,1.7,No
2014/02/07,08:30,0.8,0.5,0.8,0.7,0.7,0.3,0.3,north,1.7,No
2014/02/07,08:40,0.8,0.5,0.8,0.7,0.7,0.3,0.3,north,1.7,No
2014/02/07,08:50,0.8,0.5,0.8,0.7,0.7,0.3,0.3,north-northwest,1.6,No
2014/02/07,09:00,0.8,0.5,0.8,0.7,0.7,0.3,0.3,north-northwest,1.3,No
2014/02/07,09:10,0.8,0.5,0.8,0.7,0.7,0.3,0.3,north-northwest,2.6,No
2014/02/07,09:20,0.8,0.5,0.8,0.7,0.7,0.3,0.3,north,2.8,No
2014/02/07,09:30,0.8,0.5,0.8,0.7,0.7,0.3,0.3,north,2.1,No
2014/02/07,09:40,0.8,0.5,0.8,0.7,0.7,0.3,0.3,-,-,No
2014/02/07,09:50,0.8,0.5,0.8,0.7,0.7,0.3,0.3,-,-,No
2014/02/07,10:00,0.8,0.5,0.8,0.7,0.7,0.3,0.3,-,-,No
2014/02/07,10:10,0.8,0.5,0.8,0.7,0.7,0.3,0.3,-,-,No
2014/02/07,10:20,0.8,0.5,0.8,0.7,0.7,0.3,0.3,-,-,No
2014/02/07,10:30,0.8,0.5,0.8,0.7,0.7,0.3,0.3,-,-,No
2014/02/07,10:40,0.8,0.5,0.8,0.7,0.7,0.3,0.3,-,-,No
2014/02/07,10:50,0.8,0.5,0.8,0.7,0.7,0.3,0.3,-,-,No
2014/02/07,11:00,0.8,0.5,0.8,0.7,0.7,0.3,0.3,-,-,No
2014/02/07,11:10,0.8,0.5,0.8,0.7,0.7,0.3,0.3,-,-,No
2014/02/07,11:20,0.8,0.5,0.8,0.7,0.7,0.3,0.3,-,-,No
2014/02/07,11:30,0.8,0.5,0.8,0.7,0.7,0.3,0.3,-,-,No
2014/02/07,11:40,0.8,0.5,0.8,0.7,0.7,0.3,0.3,-,-,No
2014/02/07,11:50,0.8,0.5,0.8,0.7,0.7,0.3,0.3,-,-,No
2014/02/07,12:00,0.8,0.5,0.8,0.7,0.7,0.3,0.3,-,-,No
2014/02/07,12:10,0.8,0.5,0.8,0.7,0.7,0.3,0.3,-,-,No
2014/02/07,12:20,0.8,0.5,0.8,0.7,0.7,0.3,0.3,-,-,No
2014/02/07,12:30,0.8,0.5,0.8,0.7,0.7,0.3,0.3,-,-,No
2014/02/07,12:40,0.8,0.5,0.8,0.7,0.7,0.3,0.3,-,-,No
2014/02/07,12:50,0.8,0.5,0.8,0.7,0.7,0.3,0.3,-,-,No
2014/02/07,13:00,0.8,0.5,0.8,0.7,0.7,0.3,0.3,-,-,No
2014/02/07,13:10,0.8,0.5,0.8,0.7,0.7,0.3,0.3,-,-,No
2014/02/07,13:20,0.8,0.5,0.8,0.7,0.7,0.3,0.3,-,-,No
2014/02/07,13:30,0.8,0.5,0.8,0.7,0.7,0.3,0.3,-,-,No
2014/02/07,13:40,0.8,0.5,0.8,0.7,0.7,0.3,0.3,-,-,No
2014/02/07,13:50,0.8,0.5,0.8,0.7,0.7,0.3,0.3,-,-,No
2014/02/07,14:00,0.8,0.5,0.8,0.7,0.7,0.3,0.3,-,-,No
2014/02/07,14:10,0.8,0.5,0.8,0.7,0.7,0.3,0.3,-,-,No
2014/02/07,14:20,0.8,0.5,0.8,0.7,0.7,0.3,0.3,-,-,No
2014/02/07,14:30,0.8,0.5,0.8,0.7,0.7,0.3,0.3,-,-,No
2014/02/07,14:40,0.8,0.5,0.8,0.7,0.7,0.3,0.3,-,-,No
2014/02/07,14:50,0.8,0.5,0.8,0.7,0.7,0.3,0.3,-,-,No
2014/02/07,15:00,0.8,0.5,0.8,0.7,0.7,0.3,0.3,-,-,No
2014/02/07,15:10,0.8,0.5,0.8,0.7,0.7,0.3,0.3,-,-,No
2014/02/07,15:20,0.8,0.5,0.8,0.7,0.7,0.3,0.3,-,-,No
2014/02/07,15:30,0.8,0.5,0.8,0.7,0.7,0.3,0.3,-,-,No
2014/02/07,15:40,0.8,0.5,0.8,0.7,0.7,0.3,0.3,-,-,No
2014/02/07,15:50,0.8,0.5,0.8,0.7,0.7,0.3,0.3,-,-,No
2014/02/07,16:00,0.8,0.5,0.8,0.7,0.7,0.3,0.3,-,-,No
2014/02/07,16:10,0.8,0.5,0.8,0.7,0.7,0.3,0.3,-,-,No
2014/02/07,16:20,0.8,0.5,0.8,0.7,0.7,0.3,0.3,-,-,No
2014/02/07,16:30,0.8,0.5,0.8,0.7,0.7,0.3,0.3,-,-,No
2014/02/07,16:40,0.8,0.5,0.8,0.7,0.7,0.3,0.3,-,-,No
2014/02/07,16:50,0.8,0.5,0.8,0.7,0.7,0.3,0.3,-,-,No
2014/02/07,17:00,0.8,0.5,0.8,0.7,0.7,0.3,0.3,north-northwest,2.3,No
2014/02/07,17:10,0.8,0.5,0.8,0.7,0.7,0.3,0.3,north,2.8,No
2014/02/07,17:20,0.8,0.5,0.8,0.7,0.7,0.3,0.3,north,2.5,No
2014/02/07,17:30,0.8,0.5,0.8,0.7,0.7,0.3,0.3,north,1.8,No
2014/02/07,17:40,0.8,0.5,0.8,0.7,0.7,0.3,0.3,north,1.9,No
2014/02/07,17:50,0.8,0.5,0.8,0.7,0.7,0.3,0.3,north,2.9,No
2014/02/07,18:00,0.8,0.5,0.8,0.7,0.7,0.3,0.3,north,4.0,No
2014/02/07,18:10,0.8,0.5,0.8,0.7,0.7,0.3,0.3,north-northwest,4.8,No
2014/02/07,18:20,0.8,0.5,0.8,0.7,0.7,0.3,0.3,north,5.6,No
2014/02/07,18:30,0.8,0.5,0.8,0.7,0.7,0.3,0.3,north,5.0,No
2014/02/07,18:40,0.8,0.5,0.8,0.7,0.7,0.3,0.3,north,5.6,No
2014/02/07,18:50,0.8,0.5,0.8,0.7,0.7,0.3,0.3,north,4.8,No
2014/02/07,19:00,0.8,0.5,0.8,0.7,0.7,0.3,0.3,north-northwest,6.4,No
2014/02/07,19:10,0.8,0.5,0.8,0.7,0.7,0.3,0.3,north,6.0,No
2014/02/07,19:20,0.8,0.5,0.8,0.7,0.7,0.3,0.3,north,5.8,No
2014/02/07,19:30,0.8,0.5,0.8,0.7,0.7,0.3,0.3,north,5.2,No
2014/02/07,19:40,0.8,0.5,0.8,0.7,0.7,0.3,0.3,north-northwest,6.4,No
2014/02/07,19:50,0.8,0.5,0.8,0.7,0.7,0.3,0.3,north,6.1,No
2014/02/07,20:00,0.8,0.5,0.8,0.7,0.7,0.3,0.3,north,4.5,No
2014/02/07,20:10,0.8,0.5,0.8,0.7,0.7,0.3,0.3,north,4.8,No
2014/02/07,20:20,0.8,0.5,0.8,0.7,0.7,0.3,0.3,north,4.4,No
2014/02/07,20:30,0.8,0.5,0.8,0.7,0.7,0.3,0.3,north,4.6,No
2014/02/07,20:40,0.8,0.5,0.8,0.7,0.7,0.3,0.3,north,3.6,No
2014/02/07,20:50,0.8,0.5,0.8,0.7,0.7,0.3,0.3,north-northwest,2.0,No
2014/02/07,21:00,0.8,0.5,0.8,0.7,0.7,0.3,0.3,northwest,2.1,No
2014/02/07,21:10,0.8,0.5,0.8,0.7,0.7,0.3,0.3,northwest,2.2,No
2014/02/07,21:20,0.8,0.5,0.8,0.7,0.7,0.3,0.3,north-northwest,3.6,No
2014/02/07,21:30,0.8,0.5,0.8,0.7,0.7,0.3,0.3,north,4.5,No
2014/02/07,21:40,0.8,0.5,0.8,0.7,0.7,0.3,0.3,north,3.4,No
2014/02/07,21:50,0.8,0.5,0.8,0.7,0.7,0.3,0.3,north,3.4,No
2014/02/07,22:00,0.8,0.5,0.8,0.7,0.7,0.3,0.3,north,3.5,No
2014/02/07,22:10,0.8,0.5,0.8,0.7,0.7,0.3,0.3,north,4.8,No
2014/02/07,22:20,0.8,0.5,0.8,0.7,0.7,0.3,0.3,north,4.7,No
2014/02/07,22:30,0.8,0.5,0.8,0.7,0.7,0.3,0.3,north-northwest,3.6,No
2014/02/07,22:40,0.8,0.5,0.8,0.7,0.7,0.3,0.3,northwest,2.9,No
2014/02/07,22:50,0.8,0.5,0.8,0.7,0.7,0.3,0.3,north-northwest,2.5,No
2014/02/07,23:00,0.8,0.5,0.8,0.7,0.7,0.3,0.3,north-northwest,2.3,No
2014/02/07,23:10,0.8,0.5,0.8,0.7,0.7,0.3,0.3,northwest,2.8,No
2014/02/07,23:20,0.8,0.5,0.8,0.7,0.7,0.3,0.3,north-northwest,3.4,No
2014/02/07,23:30,0.8,0.5,0.8,0.7,0.7,0.3,0.3,north-northwest,4.1,No
2014/02/07,23:40,0.8,0.5,0.8,0.7,0.7,0.3,0.3,north-northwest,3.9,No
2014/02/07,23:50,0.8,0.5,0.8,0.7,0.7,0.3,0.3,north-northwest,3.1,No
